Wind_Speed
17 18 20 22 23 25 26 27 28 28 29 30 30 32 33 33 32 31 31 30 30 30 31 31 32 31 29 27 26 27 28 28 28 29 29 31 32 33 35 37 37 37
18 19 21 23 25 26 26 27 27 28 30 30 31 32 33 33 33 32 31 31 31 31 31 31 33 31 29 27 27 28 29 29 29 28 28 29 30 30 32 35 37 38
18 20 22 24 25 26 26 27 27 27 29 29 30 31 32 33 33 33 33 32 32 32 31 31 33 33 31 29 28 29 29 30 30 30 30 31 31 32 34 35 36 37
19 21 22 23 24 25 26 26 27 27 27 29 30 31 32 32 33 33 34 33 32 33 32 32 34 35 33 30 29 29 29 30 31 30 30 31 31 32 33 33 32 33
20 21 22 23 24 25 25 26 27 27 27 29 29 30 31 32 33 34 34 34 33 33 32 32 32 30 28 26 26 27 28 29 29 29 29 30 30 28 28 27 28 30
21 22 22 23 24 25 26 26 27 28 28 28 29 30 31 32 33 33 34 34 33 32 32 31 29 26 23 21 22 25 28 29 30 30 31 31 31 28 25 27 30 33
21 22 23 24 25 25 26 27 27 28 28 28 29 31 31 32 33 33 33 33 32 30 30 29 29 26 22 19 20 24 28 30 31 32 33 33 32 30 28 29 31 33
22 24 24 25 26 27 27 28 28 29 29 31 32 33 32 31 32 32 31 30 30 29 28 29 30 29 24 19 19 24 28 30 30 31 34 33 32 31 31 30 30 31
23 24 25 26 27 28 30 31 31 32 32 33 35 34 31 29 29 29 30 30 30 29 28 29 31 30 27 25 23 24 27 29 29 30 33 34 33 33 32 32 31 32
24 25 26 27 28 30 31 32 33 34 34 35 35 32 28 27 27 27 29 29 28 28 29 31 31 30 31 30 28 27 28 30 30 30 32 34 34 33 32 32 33 33
25 26 27 28 29 30 32 32 32 33 34 33 31 27 25 26 27 27 28 28 28 29 32 33 32 31 32 33 31 30 31 32 32 32 33 34 35 34 33 33 34 34
25 25 26 28 29 30 31 31 31 32 31 28 25 24 25 26 27 28 28 30 31 32 32 33 33 32 33 33 33 33 32 33 33 33 34 35 35 34 33 33 34 35
24 25 26 27 28 29 30 30 31 29 27 24 23 24 27 28 29 29 29 30 32 33 32 33 34 33 33 34 34 33 33 33 33 33 33 34 33 33 31 32 34 35
23 24 25 26 26 27 29 30 31 29 27 25 24 26 27 27 28 29 31 31 32 33 34 34 34 34 33 33 33 32 32 33 33 33 33 32 32 31 30 31 33 34
22 24 24 25 26 26 28 30 30 30 29 27 25 25 26 27 28 29 31 32 33 33 33 33 33 32 31 31 31 31 31 31 32 32 32 32 32 32 31 32 33 34
21 22 23 25 26 27 29 30 30 31 31 29 28 28 28 29 30 29 29 32 33 33 32 31 31 31 31 31 31 32 32 32 30 29 28 28 30 31 31 31 32 33
20 21 23 25 27 29 30 31 31 31 31 31 31 31 31 31 31 32 32 32 32 32 32 31 31 31 32 33 33 34 34 34 32 31 28 27 28 29 28 29 30 32
18 21 24 27 28 30 31 31 31 31 31 31 32 32 32 31 32 35 36 33 30 30 31 32 32 33 33 34 34 34 35 34 33 31 30 29 27 27 27 29 31 32
18 22 25 27 29 30 30 30 31 31 30 31 32 32 32 32 32 33 31 28 28 30 31 32 33 33 33 34 35 35 36 35 31 28 30 32 31 28 27 29 32 31
19 22 24 27 28 29 30 30 30 30 30 30 31 31 31 31 30 28 27 27 29 30 31 32 32 33 34 35 36 36 37 36 32 29 30 32 33 31 29 31 34 33
20 22 24 26 28 29 29 30 29 29 30 29 29 29 29 28 27 27 28 29 28 29 31 33 33 34 35 36 37 36 36 35 33 32 30 28 28 28 29 32 34 35
19 21 23 26 27 28 29 29 29 29 29 29 28 27 27 27 27 28 28 29 30 30 32 33 34 34 35 37 37 36 34 33 31 30 30 30 31 30 30 31 31 32
18 20 22 24 26 27 28 28 29 29 28 27 28 28 28 28 28 28 28 30 32 32 32 34 34 34 35 36 36 34 33 31 29 28 28 32 36 36 36 35 34 33
17 19 20 22 24 26 27 28 28 28 27 27 27 28 29 29 29 29 30 30 31 33 33 33 34 36 36 35 34 33 32 30 29 27 26 29 32 34 35 35 33 33
16 17 18 20 22 24 25 27 27 28 27 27 27 27 28 29 29 29 30 31 31 33 33 33 36 39 37 34 33 33 32 31 29 25 24 25 24 25 29 30 29 29
15 16 17 18 21 23 24 25 26 27 28 28 28 27 27 28 28 28 30 31 31 32 32 34 37 37 34 31 32 33 32 32 29 25 23 24 24 24 26 27 28 28
Wind_Direction
327 323 321 321 320 318 314 310 307 303 301 300 298 298 298 298 299 298 297 295 293 290 288 288 286 284 281 278 277 275 273 273 272 273 271 268 270 274 275 275 276 276
328 325 325 324 321 318 314 310 307 304 302 301 299 299 298 299 299 297 295 294 292 289 287 285 284 282 278 276 276 275 275 274 272 272 272 272 273 272 270 271 273 273
330 329 327 325 320 317 314 311 308 305 303 302 301 300 299 298 297 296 294 292 290 288 285 282 282 280 276 273 274 274 274 273 272 272 273 273 272 271 269 268 268 270
334 332 328 324 319 316 314 312 309 307 305 303 302 301 299 297 296 294 292 291 289 286 283 281 281 279 275 270 270 271 270 270 271 270 270 270 267 265 265 264 265 270
336 332 327 323 319 317 315 312 310 309 307 304 303 301 299 296 294 292 291 290 288 286 284 282 280 277 271 267 266 266 268 269 269 269 268 268 267 267 271 275 277 279
334 329 325 322 320 318 315 312 311 311 309 306 303 300 297 294 292 290 290 289 287 284 283 282 280 275 269 265 264 264 267 268 268 268 267 268 269 270 276 281 279 277
331 328 326 323 322 319 315 313 313 311 309 305 301 298 296 294 292 290 289 287 285 282 281 281 280 278 272 265 262 266 268 268 267 267 266 267 268 268 270 274 274 273
329 328 328 325 322 320 317 317 316 313 311 307 303 301 299 294 291 291 289 286 283 281 281 282 281 279 276 270 265 266 268 268 267 266 266 265 266 267 270 273 275 277
330 330 329 325 323 322 321 321 319 316 314 311 307 305 301 294 290 290 289 287 284 283 283 283 281 278 277 274 271 269 269 269 266 264 265 264 264 267 269 271 274 277
332 331 329 326 324 322 321 321 319 317 316 314 311 304 297 294 293 292 291 289 286 285 285 284 281 279 279 276 273 271 271 271 269 266 265 264 264 266 266 269 272 272
333 330 327 325 324 323 322 320 317 316 315 312 309 301 296 298 298 296 295 291 288 287 286 284 281 280 280 278 273 271 271 272 271 268 267 265 265 265 265 267 269 269
331 328 325 324 324 323 321 318 315 314 313 308 303 300 301 302 300 298 296 292 290 288 286 284 282 280 279 277 275 273 272 271 270 268 268 266 266 266 264 265 268 268
327 326 325 324 323 319 317 316 316 315 311 306 304 304 304 304 301 298 296 293 291 289 287 285 284 282 279 276 275 273 271 271 269 267 268 267 266 265 264 266 269 268
325 326 325 323 319 317 317 320 320 317 313 310 308 307 305 303 301 298 296 295 291 289 288 286 284 283 280 277 275 273 270 268 267 266 267 267 267 265 263 265 268 267
328 327 324 321 320 321 322 323 323 321 318 315 312 309 306 303 301 298 297 296 293 291 288 286 284 282 279 278 276 274 271 267 265 263 262 262 264 265 264 263 263 264
330 325 323 325 327 328 328 327 326 324 321 318 315 312 309 307 304 300 296 296 295 293 289 286 284 281 280 280 278 277 275 271 267 264 258 256 257 259 261 260 259 262
327 324 328 333 335 334 332 329 327 325 323 321 319 316 314 312 308 303 300 297 294 293 291 288 285 283 283 284 282 280 278 275 274 271 267 261 257 256 258 261 264 267
325 331 338 340 338 336 333 330 328 327 326 324 321 319 317 314 310 307 304 299 295 295 294 291 288 287 288 288 286 283 281 279 277 275 273 270 264 259 259 263 270 272
334 342 344 341 339 337 334 332 331 328 327 325 322 320 317 314 312 309 305 301 300 300 298 296 294 292 292 291 289 286 283 281 278 274 271 269 267 264 260 264 270 271
345 347 345 341 340 338 335 334 331 328 327 326 323 321 318 315 314 312 309 307 306 303 301 299 297 297 296 295 292 290 286 284 283 277 268 264 263 260 257 260 265 266
350 348 345 342 341 339 335 333 331 328 327 326 324 320 317 315 313 312 311 310 308 307 305 303 300 299 300 299 297 295 292 289 286 279 271 266 266 263 259 259 260 260
351 348 345 344 341 338 334 331 329 328 327 326 323 319 316 314 312 312 311 310 310 309 306 304 303 303 302 301 299 298 296 293 287 281 274 270 270 267 263 262 261 260
352 348 345 344 340 335 331 329 328 327 327 326 322 319 317 315 313 313 312 311 310 309 306 304 304 306 306 304 303 302 301 299 296 292 286 280 276 268 261 259 261 261
355 350 346 343 338 332 328 327 327 326 326 325 321 317 316 315 314 313 312 311 311 310 308 306 306 309 309 306 305 305 304 303 302 298 295 292 284 269 258 256 260 262
356 351 347 341 334 330 327 326 326 325 324 323 320 317 314 314 314 313 312 312 312 311 310 309 307 306 306 305 305 307 308 307 305 301 300 302 294 273 260 257 259 261
357 350 346 340 333 331 329 327 326 326 325 324 321 318 316 314 315 314 312 312 313 312 312 311 307 302 302 306 309 311 311 310 308 304 303 304 301 292 278 264 256 256
Height
773 772 771 769 767 766 765 764 762 760 758 756 754 751 748 746 745 743 741 739 737 735 733 732 730 729 727 726 724 722 719 717 714 712 710 708 705 703 701 700 698 695
770 769 768 766 764 764 763 762 760 757 755 753 750 748 745 743 741 739 737 735 733 731 729 728 726 724 723 721 720 718 715 712 709 708 706 703 701 699 696 696 694 691
768 766 765 764 762 762 760 758 757 754 752 749 747 745 742 740 738 735 733 731 729 726 724 723 721 719 718 716 715 713 710 707 705 703 702 699 697 695 692 691 689 686
765 764 763 762 761 759 757 755 753 751 749 746 744 742 739 737 735 732 729 727 725 722 720 717 715 713 712 711 710 707 705 703 700 699 697 694 692 690 687 685 682 680
762 762 761 760 758 756 754 752 750 747 745 743 741 739 737 734 731 728 725 723 721 718 715 713 711 708 706 705 704 702 700 698 696 695 693 689 688 685 682 680 677 676
760 760 759 757 755 753 751 749 747 744 742 740 738 736 734 731 728 725 722 719 717 714 711 709 706 704 702 700 699 697 695 693 692 691 688 685 683 681 679 677 675 672
758 757 755 754 752 750 748 746 744 742 739 738 735 733 730 727 724 721 719 716 713 710 708 705 703 701 699 696 693 691 690 688 687 686 684 681 679 677 675 674 671 667
754 753 752 750 748 747 745 743 741 739 737 735 731 728 726 723 720 717 715 713 710 707 704 702 699 697 695 693 689 686 684 683 682 681 678 676 675 673 671 670 666 662
751 750 748 747 745 743 741 739 737 735 734 731 727 723 721 719 717 714 711 709 706 703 701 699 696 693 691 689 685 682 679 677 676 675 673 671 670 668 667 666 662 658
748 746 745 744 742 740 737 736 734 732 729 726 723 720 717 715 713 711 708 706 703 700 697 695 692 689 686 684 681 679 675 672 670 669 667 666 664 663 663 662 659 655
745 744 742 741 739 736 734 733 730 728 725 722 719 716 714 712 710 708 705 702 699 696 693 690 687 685 682 678 676 674 671 668 666 664 662 660 659 658 658 657 654 650
743 742 740 738 735 733 731 730 727 724 721 719 717 714 711 709 706 704 702 699 696 692 689 686 683 680 677 673 671 669 667 664 661 659 657 655 653 653 652 651 649 646
742 740 737 735 733 731 729 726 723 721 718 716 714 711 708 705 702 700 698 695 692 688 685 682 678 675 672 668 666 664 662 659 657 654 652 650 648 647 646 646 644 642
740 738 735 734 732 729 726 723 719 717 715 713 710 708 705 702 700 697 694 692 689 685 681 678 674 670 667 664 661 659 657 654 652 650 648 645 643 641 641 640 639 637
738 736 734 732 730 726 722 719 716 713 711 709 707 704 702 699 697 694 691 687 684 681 678 674 670 666 663 660 657 655 653 649 646 645 643 641 639 637 635 634 632 631
736 735 733 730 726 722 719 715 713 710 708 706 703 701 699 696 693 691 688 685 680 677 674 670 666 662 659 657 655 651 648 645 641 639 637 635 633 631 629 627 626 624
735 733 730 726 721 718 715 713 710 708 705 703 700 698 696 694 690 687 684 682 677 673 670 667 663 659 656 653 650 647 644 641 637 635 633 631 628 626 624 622 621 619
733 729 725 721 718 715 713 710 708 705 703 700 697 695 693 690 687 684 680 678 674 670 667 663 659 655 652 649 646 643 640 636 633 631 629 626 624 621 619 617 616 614
728 724 720 717 715 713 711 708 706 703 701 698 695 693 690 687 684 681 678 675 672 668 664 660 655 652 649 645 641 638 635 632 629 626 623 621 619 617 614 612 611 609
723 720 717 715 713 711 708 706 704 701 699 696 693 690 687 684 681 678 676 674 671 666 661 657 652 648 645 641 636 633 629 626 623 620 617 615 613 611 608 606 605 604
719 717 715 713 711 708 706 704 702 699 696 694 691 689 686 683 680 676 674 671 668 664 659 654 649 645 641 636 631 628 624 621 618 614 611 609 607 605 602 600 599 598
716 714 713 711 708 706 704 702 700 697 694 692 689 687 684 681 678 675 671 668 665 662 657 651 645 641 637 632 627 624 620 616 612 609 605 603 601 599 597 595 593 591
715 713 711 709 707 704 702 700 697 694 692 690 687 684 681 679 675 672 669 666 662 658 653 647 641 637 633 628 624 620 616 612 608 604 600 597 594 591 589 588 586 585
713 711 710 708 706 703 701 698 695 693 691 689 686 683 679 676 673 669 666 663 659 655 651 645 639 634 630 625 621 617 613 609 605 600 596 593 588 584 582 580 579 578
712 710 709 707 705 703 700 697 694 691 689 688 685 682 678 674 671 666 662 660 656 652 648 644 637 632 627 623 618 615 611 607 603 598 593 589 584 580 576 575 573 571
711 710 708 707 704 701 699 696 693 690 687 685 683 680 677 673 669 664 660 656 653 649 645 641 635 629 624 620 616 612 609 605 600 596 591 586 582 577 573 569 567 565